Weather History for Northeast Philadelphia, PA

Change the Weather History Date:

Wednesday, February 6, 2013

  Actual Average Record
Temperature  
Mean Temperature 32 °F -  
Max Temperature 39 °F 40 °F 70 °F (2008)
Min Temperature 26 °F 24 °F 10 °F (2007)
Degree Days  
Heating Degree Days 32    
Moisture  
Dew Point 24 °F    
Average Humidity 77    
Maximum Humidity 100    
Minimum Humidity 45    
Precipitation  
Precipitation 0.00 in - - ()
Sea Level Pressure  
Sea Level Pressure 30.09 in    
Wind  
Wind Speed 4 mph (WNW)    
Max Wind Speed 14 mph    
Max Gust Speed 25 mph    
Visibility 5 miles    
Events Fog , Snow    
Averages and records for this station are not official NWS values.
T = Trace of Precipitation, MM = Missing Value Source: NWS Daily Summary

Daily Weather History Graph

Daily Weather History Graph

Search for Another Location

Airport:

Trip Planner

Search our weather history database for the weather conditions in past years. The results will help you decide how hot, cold, wet, or windy it might be!

Date:

Astronomy

Feb. 06, 2013 Rise Set
Actual Time 7:03 AM EST 5:25 PM EST
Civil Twilight 6:35 AM EST 5:53 PM EST
Nautical Twilight 6:02 AM EST 6:25 PM EST
Astronomical Twilight 5:31 AM EST 6:57 PM EST
Moon 3:44 AM EST (2/6) 1:41 PM EST (2/6)
Length of Visible Light 11h 18m
Length of Day
10h 22m
Waning Crescent, 17% of the Moon is Illuminated
Feb 6
Waning Crescent
Feb 10
New
Feb 17
First Quarter
Feb 25
Full
Mar 4
Last Quarter

Hourly Weather History & Observations

Time (EST) Temp. Windchill Dew Point Humidity Pressure Visibility Wind Dir Wind Speed Gust Speed Precip Events Conditions
12:54 AM 32.0 °F 26.4 °F 30.0 °F 92% 29.96 in 3.0 mi NNW 5.8 mph - N/A   Overcast
1:14 AM 32.0 °F 28.7 °F 30.2 °F 93% 29.95 in 2.0 mi NW 3.5 mph - 0.00 in Snow Light Snow
1:26 AM 32.0 °F 27.5 °F 30.2 °F 93% 29.95 in 2.0 mi NW 4.6 mph - 0.00 in Snow Light Snow
1:34 AM 32.0 °F 27.5 °F 30.2 °F 93% 29.96 in 3.0 mi NW 4.6 mph - 0.00 in   Overcast
1:50 AM 30.2 °F - 28.4 °F 93% 29.95 in 3.0 mi Calm Calm - 0.00 in   Mostly Cloudy
1:54 AM 30.2 °F - 28.4 °F 93% 29.95 in 3.0 mi Calm Calm - N/A   Mostly Cloudy
2:20 AM 30.2 °F - 28.4 °F 93% 29.95 in 2.5 mi Calm Calm - N/A   Clear
2:40 AM 30.2 °F - 26.6 °F 86% 29.96 in 1.8 mi Calm Calm - N/A   Scattered Clouds
2:49 AM 28.4 °F - 28.4 °F 100% 29.96 in 1.8 mi Calm Calm - N/A   Mostly Cloudy
2:54 AM 30.0 °F - 28.0 °F 92% 29.96 in 1.8 mi Calm Calm - N/A   Scattered Clouds
3:01 AM 28.4 °F - 26.6 °F 93% 29.95 in 2.0 mi Calm Calm - N/A   Scattered Clouds
3:12 AM 28.4 °F - 26.6 °F 93% 29.96 in 1.0 mi Calm Calm - N/A   Mist
3:19 AM 26.6 °F - 24.8 °F 93% 29.95 in 0.5 mi Calm Calm - N/A Fog Light Freezing Fog
3:30 AM 26.6 °F - 24.8 °F 93% 29.96 in 1.0 mi Calm Calm - N/A   Mist
3:43 AM 26.6 °F - 23.0 °F 86% 29.97 in 0.5 mi Calm Calm - N/A Fog Light Freezing Fog
3:54 AM 27.0 °F 21.6 °F 25.0 °F 92% 29.98 in 0.8 mi WNW 4.6 mph - N/A   Mist
4:00 AM 28.4 °F 23.3 °F 26.6 °F 93% 29.98 in 1.5 mi WNW 4.6 mph - N/A   Partly Cloudy
4:03 AM 28.4 °F 24.6 °F 26.6 °F 93% 29.97 in 3.0 mi WNW 3.5 mph - N/A   Partly Cloudy
4:54 AM 27.0 °F 20.5 °F 25.0 °F 92% 30.01 in 3.0 mi WSW 5.8 mph - N/A   Partly Cloudy
5:54 AM 27.0 °F 20.5 °F 25.0 °F 92% 30.04 in 3.0 mi West 5.8 mph - N/A   Clear
6:54 AM 28.9 °F 21.9 °F 26.1 °F 89% 30.07 in 6.0 mi West 6.9 mph - N/A   Mostly Cloudy
7:54 AM 30.9 °F 24.3 °F 27.0 °F 85% 30.12 in 4.0 mi WNW 6.9 mph - N/A   Mostly Cloudy
8:54 AM 33.1 °F 26.1 °F 26.1 °F 75% 30.13 in 5.0 mi WNW 8.1 mph - N/A   Haze
9:54 AM 35.1 °F 28.6 °F 24.1 °F 64% 30.16 in 9.0 mi WNW 8.1 mph - N/A   Overcast
10:54 AM 36.0 °F 27.5 °F 24.1 °F 62% 30.17 in 10.0 mi WNW 12.7 mph 19.6 mph N/A   Overcast
11:54 AM 37.0 °F 28.5 °F 23.0 °F 57% 30.17 in 10.0 mi West 13.8 mph - N/A   Mostly Cloudy
12:54 PM 37.0 °F 29.3 °F 21.0 °F 52% 30.17 in 10.0 mi NW 11.5 mph 18.4 mph N/A   Overcast
1:54 PM 37.9 °F 30.5 °F 19.9 °F 48% 30.17 in 10.0 mi NW 11.5 mph 25.3 mph N/A   Overcast
2:54 PM 39.9 °F 32.1 °F 19.9 °F 45% 30.18 in 10.0 mi WNW 13.8 mph 21.9 mph N/A   Overcast
3:54 PM 37.9 °F 30.0 °F 19.0 °F 47% 30.21 in 10.0 mi WNW 12.7 mph 23.0 mph N/A   Scattered Clouds
4:54 PM 37.0 °F 28.9 °F 19.0 °F 48% 30.23 in 10.0 mi NW 12.7 mph 20.7 mph N/A   Scattered Clouds
5:54 PM 35.1 °F 29.3 °F 19.0 °F 52% 30.27 in 10.0 mi West 6.9 mph - N/A   Clear
6:54 PM 34.0 °F 28.8 °F 19.0 °F 54% 30.29 in 10.0 mi WNW 5.8 mph - N/A   Clear
7:54 PM 33.1 °F 27.7 °F 19.0 °F 56% 30.31 in 10.0 mi NW 5.8 mph - N/A   Clear
8:54 PM 30.9 °F 26.2 °F 19.0 °F 61% 30.32 in 10.0 mi NW 4.6 mph - N/A   Clear
9:54 PM 30.0 °F 25.2 °F 16.0 °F 56% 30.36 in 10.0 mi North 4.6 mph - N/A   Clear
10:54 PM 27.0 °F 21.6 °F 15.1 °F 61% 30.37 in 10.0 mi North 4.6 mph - N/A   Clear
11:54 PM 28.0 °F - 14.0 °F 56% 30.38 in 10.0 mi Calm Calm - N/A   Clear